This is the latest recevied weather packets stored in our database for station/object Ad4UU. If no packets are shown the sender has not sent any weather packets the latest 10 day(s).
| Time | Temp. | Humidity | Pressure | Rain* | Wind** | Luminosity | Snow |
|---|---|---|---|---|---|---|---|
| 1777150845 | 29.44° C | 51% | 1011.4 hPa | 0 mm | - | - | - |
| 1777148732 | 29.44° C | 48% | 1011.3 hPa | 0 mm | - | - | - |
| 1777147535 | 30° C | 47% | 1011.4 hPa | 0 mm | - | - | - |
| 1777145445 | 30° C | 43% | 1011.7 hPa | 0 mm | - | - | - |
| 1777144834 | 30° C | 43% | 1012 hPa | 0 mm | - | - | - |
| 1777142750 | 30° C | 48% | 1012.2 hPa | 0 mm | - | - | - |
| 1777142434 | 30° C | 49% | 1012.2 hPa | 0 mm | - | - | - |
| 1777141532 | 30° C | 50% | 1012.4 hPa | 0 mm | - | - | - |
| 1777140632 | 29.44° C | 52% | 1012.4 hPa | 0 mm | - | - | - |
| 1777140052 | 29.44° C | 52% | 1012.5 hPa | 0 mm | - | - | - |
| 1777139733 | 29.44° C | 53% | 1012.5 hPa | 0 mm | - | - | - |
| 1777139150 | 28.89° C | 53% | 1012.7 hPa | 0 mm | - | - | - |
| 1777138833 | 28.89° C | 53% | 1012.8 hPa | 0 mm | - | - | - |
| 1777138531 | 28.89° C | 53% | 1012.9 hPa | 0 mm | - | - | - |
| 1777137934 | 29.44° C | 54% | 1013.1 hPa | 0 mm | - | - | - |
| 1777137632 | 28.89° C | 54% | 1013.1 hPa | 0 mm | - | - | - |
| 1777137352 | 28.89° C | 55% | 1013.2 hPa | 0 mm | - | - | - |
| 1777137031 | 28.89° C | 53% | 1013.2 hPa | 0 mm | - | - | - |
| 1777136732 | 28.89° C | 54% | 1013.2 hPa | 0 mm | - | - | - |
| 1777134671 | 29.44° C | 56% | 1013.3 hPa | 0 mm | - | - | - |
| 1777134333 | 29.44° C | 55% | 1013.5 hPa | 0 mm | - | - | - |
| 1777133431 | 28.89° C | 57% | 1013.4 hPa | 0 mm | - | - | - |
| 1777131050 | 27.78° C | 63% | 1013.5 hPa | 0 mm | - | - | - |
| 1777130431 | 27.22° C | 64% | 1013.4 hPa | 0 mm | - | - | - |
| 1777129247 | 26.67° C | 68% | 1013.4 hPa | 0 mm | - | - | - |
* Rain latest hour (hover to see other rain measurements)
** Current wind speed in m/s (hover to see current wind gust speed)